2020-081H (46912 NORAD) Tracking and Keplerian Element Data

This shows tracking and keplerian element data for the satellite.

Feedback or suggestion? Click here.




ElementValue
Catalog46912
Name2020-081H
Epoch Orbit1022
Epoch Day14.5051825
Epoch Year2021
RAAN56.8318
Inclination36.9035
Eccentricity0.000845
Argument of Perigee181.1251
Mean Anonmoly178.9473
Mean Motion14.99306763
Decay Rate2.8E-07
L11 46912U 20081H 21014.50518250 .00000028 00000-0 85196-5 0 9991
L22 46912 36.9035 56.8318 0008450 181.1251 178.9473 14.99306763 10229

Live tracking and technical data element details for 2020-081H (NORAD 46912). 2020-081H can be tracked NOW for your location showing map with azimuth and elevation plus other details from your city location.

Track the satellite on the map from your city or location and see movement details for azimuth, elevation, latitude, longitude, range, height, and movement on the map or in text.







IsCatalogInMostPopularTable: catalog: 46912, numindb: 31
Update: records affected: 1



GetName: 46912 2020-081H

Hit Count: updated at: Sat, 16 Jan 2021 00:22:59 GMT